Погода в Степногорске

Казахстан     52°20′47″N   71°52′47″E
темп.,
°C
ветер,
м/с
пор.,
м/с
влажн.,
%
обл.,
%
осадки,
мм/ч
давл.,
гПа
погр.,
м
2 марта, вт
вт200:00−14сз229798 0.3 101721
03:00−17з229872 0.0 101820
06:00−17зюз239777 0.0 101920
09:00−17зюз339684 0.0 101957
12:00−14зюз459383 0.0 1018242
15:00−11юз459289 0.0 1017335
18:00−11зюз479495 0.1 1017238
21:00−13зюз499588 0.1 1017230
3 марта, ср
ср300:00−15зюз5109381 0.1 1018235
03:00−16юз7129385 0.0 1018300
06:00−19юз8149376 0.0 1019298
09:00−19юз9159249 0.0 1019334
12:00−16юз10159034 0.0 1019355
15:00−12юз10168974 0.0 1018438
18:00−9юз9178887 0.0 1017600
21:00−6юз91789100 0.0 1017729
4 марта, чт
чт400:00−6ююз101789100 0.1 1016636
03:00−3юз111886100 0.0 1014795
06:00−4ююз111987100 0.0 1014740
09:00−5ююз111888100 0.0 1013634
12:00−4ююз111987100 0.0 1013677
15:00−3ююз121884100 0.0 1011803
18:00−2ююз12188999 0.1 1009901
21:00−2ююз111886100 0.0 1008728
5 марта, пт
пт500:00−3юз8158889 0.1 1009654
03:00−4зюз8158885 0.0 1010519
06:00−9зюз8148977 0.0 1014338
09:00−12зюз815890 0.0 1018324
12:00−8юз1018780 0.0 1019583
15:00−6юз14218249 0.0 1018884
18:00−5юз14228274 0.0 1018830
21:00−6юз142380100 0.0 1019788
6 марта, сб
сб600:00−7юз132281100 0.0 1019747
03:00−7юз122083100 0.0 1018755
06:00−7юз111985100 0.0 1018734
09:00−7юз111887100 0.1 1018641
12:00−5зюз10168999 0.1 1018586
15:00−4зюз91489100 0.0 1018586
18:00−4зюз61190100 0.0 1019511
21:00−5юз51093100 0.0 1020316